TimeEDT,TemperatureF,Dew PointF,Humidity,Sea Level PressureIn,VisibilityMPH,Wind Direction,Wind SpeedMPH,Gust SpeedMPH,PrecipitationIn,Events,Conditions,WindDirDegrees,DateUTC
12:15 AM,66.0,59.9,81,30.06,10.0,Calm,Calm,-,N/A,,Clear,0,2012-10-15 04:15:00
12:35 AM,65.5,59.9,82,30.04,10.0,SSW,3.5,-,N/A,,Clear,210,2012-10-15 04:35:00
12:55 AM,65.3,59.7,82,30.04,10.0,Calm,Calm,-,N/A,,Clear,0,2012-10-15 04:55:00
1:15 AM,65.3,60.1,83,30.02,10.0,SSW,3.5,-,N/A,,Clear,200,2012-10-15 05:15:00
1:35 AM,64.9,60.6,86,30.02,10.0,Calm,Calm,-,N/A,,Clear,0,2012-10-15 05:35:00
1:55 AM,64.8,60.6,86,30.02,10.0,South,3.5,-,N/A,,Clear,170,2012-10-15 05:55:00
2:15 AM,64.9,60.8,86,30.01,10.0,SSW,3.5,-,N/A,,Clear,210,2012-10-15 06:15:00
2:35 AM,65.5,61.5,87,30.00,10.0,South,3.5,-,N/A,,Clear,190,2012-10-15 06:35:00
2:55 AM,66.0,61.5,85,29.99,10.0,South,3.5,-,N/A,,Clear,180,2012-10-15 06:55:00
3:15 AM,66.2,61.2,84,29.96,10.0,SSE,4.6,-,N/A,,Clear,160,2012-10-15 07:15:00
3:35 AM,66.4,60.8,82,29.96,10.0,South,4.6,-,N/A,,Clear,180,2012-10-15 07:35:00
3:55 AM,66.6,60.6,81,29.95,10.0,South,4.6,-,N/A,,Clear,180,2012-10-15 07:55:00
4:15 AM,66.4,60.6,82,29.95,10.0,Calm,Calm,-,N/A,,Clear,0,2012-10-15 08:15:00
4:35 AM,65.8,60.6,83,29.95,10.0,Calm,Calm,-,N/A,,Clear,0,2012-10-15 08:35:00
4:55 AM,65.3,60.6,85,29.94,10.0,Calm,Calm,-,N/A,,Clear,0,2012-10-15 08:55:00
5:15 AM,65.3,60.8,85,29.95,10.0,Calm,Calm,-,N/A,,Clear,0,2012-10-15 09:15:00
5:35 AM,64.4,61.0,89,29.95,10.0,SW,3.5,-,N/A,,Clear,230,2012-10-15 09:35:00
5:55 AM,64.0,60.4,88,29.94,10.0,Calm,Calm,-,N/A,,Clear,0,2012-10-15 09:55:00
6:15 AM,63.7,59.9,87,29.94,10.0,Calm,Calm,-,N/A,,Clear,0,2012-10-15 10:15:00
6:35 AM,63.5,60.1,89,29.94,10.0,Calm,Calm,-,N/A,,Clear,0,2012-10-15 10:35:00
6:55 AM,64.0,60.3,87,29.94,10.0,Calm,Calm,-,N/A,,Scattered Clouds,0,2012-10-15 10:55:00
7:15 AM,63.7,60.1,88,29.94,10.0,Calm,Calm,-,N/A,,Clear,0,2012-10-15 11:15:00
7:35 AM,63.3,60.4,90,29.94,10.0,Calm,Calm,-,N/A,,Scattered Clouds,0,2012-10-15 11:35:00
7:55 AM,63.9,61.2,91,29.94,10.0,Calm,Calm,-,N/A,,Scattered Clouds,0,2012-10-15 11:55:00
8:15 AM,64.8,61.5,89,29.93,10.0,Calm,Calm,-,N/A,,Clear,0,2012-10-15 12:15:00
8:35 AM,66.4,61.9,85,29.93,10.0,Calm,Calm,-,N/A,,Clear,0,2012-10-15 12:35:00
8:55 AM,67.3,62.4,84,29.93,10.0,Calm,Calm,-,N/A,,Clear,0,2012-10-15 12:55:00
9:15 AM,68.2,62.6,82,29.93,10.0,SW,4.6,-,N/A,,Clear,220,2012-10-15 13:15:00
9:35 AM,68.2,62.6,82,29.92,10.0,Calm,Calm,-,N/A,,Clear,0,2012-10-15 13:35:00
9:55 AM,69.1,63.3,82,29.92,10.0,Calm,Calm,-,N/A,,Clear,0,2012-10-15 13:55:00
10:15 AM,71.2,63.7,77,29.91,10.0,SW,4.6,-,N/A,,Clear,220,2012-10-15 14:15:00
10:35 AM,72.3,63.3,73,29.91,10.0,SW,5.8,-,N/A,,Clear,220,2012-10-15 14:35:00
10:55 AM,72.1,63.5,74,29.90,10.0,SW,5.8,-,N/A,,Clear,230,2012-10-15 14:55:00
11:15 AM,71.8,63.7,76,29.89,10.0,Calm,Calm,-,N/A,,Clear,0,2012-10-15 15:15:00
11:35 AM,72.7,64.0,74,29.89,10.0,WSW,6.9,-,N/A,,Clear,250,2012-10-15 15:35:00
11:55 AM,75.6,63.0,65,29.89,10.0,WSW,5.8,-,N/A,,Clear,250,2012-10-15 15:55:00
12:15 PM,76.1,62.8,63,29.87,10.0,West,6.9,-,N/A,,Clear,280,2012-10-15 16:15:00
12:35 PM,74.7,62.6,66,29.87,10.0,West,8.1,-,N/A,,Clear,270,2012-10-15 16:35:00
12:55 PM,74.3,62.6,67,29.85,10.0,West,5.8,-,N/A,,Clear,260,2012-10-15 16:55:00
1:15 PM,74.7,62.4,66,29.83,10.0,WSW,5.8,-,N/A,,Clear,240,2012-10-15 17:15:00
1:35 PM,75.4,60.4,60,29.83,10.0,WSW,5.8,-,N/A,,Clear,250,2012-10-15 17:35:00
1:55 PM,75.7,60.1,58,29.81,10.0,WSW,4.6,-,N/A,,Clear,250,2012-10-15 17:55:00
2:15 PM,76.5,58.8,54,29.81,10.0,West,6.9,-,N/A,,Clear,270,2012-10-15 18:15:00
2:35 PM,77.0,59.0,54,29.79,10.0,NW,4.6,-,N/A,,Clear,310,2012-10-15 18:35:00
2:55 PM,76.3,60.3,57,29.78,10.0,WNW,3.5,-,N/A,,Clear,290,2012-10-15 18:55:00
3:15 PM,76.8,59.5,55,29.78,10.0,Calm,Calm,-,N/A,,Clear,0,2012-10-15 19:15:00
3:35 PM,75.6,59.4,57,29.76,10.0,Calm,Calm,-,N/A,,Clear,0,2012-10-15 19:35:00
3:55 PM,75.6,59.4,57,29.75,10.0,ESE,4.6,-,N/A,,Clear,110,2012-10-15 19:55:00
4:15 PM,74.7,61.7,64,29.73,10.0,ESE,5.8,-,N/A,,Clear,120,2012-10-15 20:15:00
4:35 PM,74.1,62.8,68,29.73,10.0,ESE,3.5,-,N/A,,Clear,110,2012-10-15 20:35:00
4:55 PM,74.7,62.8,66,29.73,10.0,SSE,5.8,-,N/A,,Clear,150,2012-10-15 20:55:00
5:15 PM,74.1,62.8,68,29.74,10.0,South,3.5,-,N/A,,Clear,170,2012-10-15 21:15:00
5:35 PM,73.4,62.4,68,29.73,10.0,SSE,3.5,-,N/A,,Clear,150,2012-10-15 21:35:00
5:55 PM,72.5,62.2,70,29.73,10.0,SSE,3.5,-,N/A,,Clear,160,2012-10-15 21:55:00
6:15 PM,71.6,62.2,72,29.72,10.0,South,3.5,-,N/A,,Clear,170,2012-10-15 22:15:00
6:35 PM,70.9,61.5,72,29.71,10.0,Calm,Calm,-,N/A,,Clear,0,2012-10-15 22:35:00
6:55 PM,70.2,61.0,73,29.70,10.0,SSE,3.5,-,N/A,,Clear,160,2012-10-15 22:55:00
7:15 PM,69.8,61.0,73,29.70,10.0,South,4.6,-,N/A,,Clear,170,2012-10-15 23:15:00
7:35 PM,70.0,61.5,74,29.70,10.0,South,6.9,-,N/A,,Clear,180,2012-10-15 23:35:00
7:55 PM,70.2,62.8,77,29.69,10.0,SSW,4.6,-,N/A,,Clear,200,2012-10-15 23:55:00
8:15 PM,70.0,63.7,80,29.70,10.0,SSW,6.9,-,N/A,,Clear,200,2012-10-16 00:15:00
8:35 PM,69.8,64.0,82,29.70,10.0,SSW,4.6,-,N/A,,Clear,200,2012-10-16 00:35:00
8:55 PM,69.8,64.4,83,29.70,10.0,SW,5.8,-,N/A,Rain,Light Rain,220,2012-10-16 00:55:00
9:15 PM,69.6,64.9,85,29.71,7.0,SW,5.8,-,0.01,Rain,Rain,230,2012-10-16 01:15:00
9:35 PM,68.5,65.5,90,29.73,3.0,WSW,6.9,-,0.03,Rain,Heavy Rain,250,2012-10-16 01:35:00
9:55 PM,67.3,64.8,92,29.72,5.0,West,11.5,16.1,0.05,Rain,Light Rain,260,2012-10-16 01:55:00
10:15 PM,64.9,62.6,92,29.74,7.0,West,9.2,17.3,0.01,Rain,Light Rain,260,2012-10-16 02:15:00
10:35 PM,63.7,61.3,92,29.73,7.0,West,5.8,-,0.02,Rain,Rain,270,2012-10-16 02:35:00
10:55 PM,63.5,61.5,93,29.74,10.0,West,3.5,-,0.03,,Mostly Cloudy,270,2012-10-16 02:55:00
11:15 PM,63.9,62.1,94,29.73,10.0,West,3.5,-,0.01,,Light Drizzle,270,2012-10-16 03:15:00
11:35 PM,64.0,62.2,94,29.73,10.0,WSW,4.6,-,0.01,,Mostly Cloudy,250,2012-10-16 03:35:00
11:55 PM,64.2,62.6,94,29.72,10.0,West,5.8,-,0.01,,Scattered Clouds,260,2012-10-16 03:55:00